Home > Weather > Esfahãn > Past weeks

Flag for Iran Weather for the Past 2 Weeks in Esfahãn, Iran

Now
61 °F

Passing clouds.


Feels Like: 61 °F
Forecast: 57 / 79 °F
Wind: 2 mph from North

Location: Esfahan

Current Time: Apr 29, 2016 at 7:22:13 AM

Latest Report: Apr 29, 2016 at 7:00 AM


Visibility: 4 mi

Pressure: 30.04 "Hg (24.93 "Hg at 1576m altitude)

Humidity: 39%

Dew Point: 36 °F

Location of EsfahãnLocation

Historic Weather in Esfahãn — Graph

°F

Esfahãn Temperature Yesterday

Maximum temperature yesterday: 86 °F (at 2:00 PM)
Minimum temperature yesterday: 52 °F (at 5:30 AM)
Average temperature yesterday: 71 °F

High & Low Weather Summary for the Past Weeks

 TemperatureHumidityPressure
High86 °F (Apr 27, 3:30 PM)100% (Apr 15, 8:30 AM)30.24 "Hg (Apr 15, 8:30 AM)
Low37 °F (Apr 20, 6:30 AM)8% (Apr 27, 5:00 PM)29.86 "Hg (Apr 14, 5:30 AM)
Average61 °F36%30.06 "Hg
* Reported Apr 14 5:30 AM — Apr 29 5:30 AM, Esfahãn, Weather by CustomWeather, © 2016

Note: Actual official high and low records may vary slightly from our data, if they occured in-between our weather recording intervals... More about our weather records

Advertising

Esfahãn Weather History for the Previous 24 Hours

Scroll right to see more
 ConditionsComfort  
Time TempWeatherWind HumidityBarometerVisibility
5:30 AM
Fri, Apr 29
61 °FPassing clouds.2 mph36%30.01 "Hg4 mi
5:00 AM63 °FPassing clouds.2 mph32%30.01 "Hg4 mi
4:30 AM64 °FPartly cloudy.5 mph30%30.01 "Hg4 mi
4:00 AM63 °FPartly cloudy.5 mph34%30.04 "Hg4 mi
3:30 AM63 °FPartly cloudy.7 mph32%30.04 "Hg3 mi
3:00 AM63 °FPassing clouds.7 mph30%30.04 "Hg3 mi
2:30 AM61 °FPassing clouds.5 mph34%30.04 "HgN/A
2:00 AM64 °FPassing clouds.7 mph30%30.01 "HgN/A
1:30 AM68 °FPassing clouds.7 mph23%30.04 "HgN/A
1:00 AM68 °FPassing clouds.5 mph21%30.04 "HgN/A
12:30 AM68 °FPassing clouds.7 mph23%30.04 "HgN/A
12:00 AM68 °FPassing clouds.7 mph23%30.04 "HgN/A
11:30 PM
Thu, Apr 28
68 °FPassing clouds.7 mph24%30.04 "HgN/A
11:00 PM70 °FPassing clouds.No wind27%30.04 "HgN/A
10:30 PM70 °FPassing clouds.7 mph25%30.04 "HgN/A
10:00 PM73 °FPassing clouds.7 mph22%30.04 "HgN/A
9:30 PM73 °FPassing clouds.9 mph20%30.01 "HgN/A
9:00 PM72 °FScattered clouds.7 mph20%30.01 "HgN/A
8:30 PM73 °FPartly sunny.9 mph19%30.01 "HgN/A
8:00 PM77 °FBroken clouds.9 mph18%30.01 "HgN/A
7:30 PM79 °FBroken clouds.7 mph18%30.01 "HgN/A
7:00 PM81 °FBroken clouds.12 mph18%30.01 "HgN/A
6:30 PM84 °FScattered clouds.14 mph14%30.01 "HgN/A
6:00 PM84 °FScattered clouds.9 mph14%30.01 "HgN/A
5:30 PM84 °FScattered clouds.5 mph14%30.01 "HgN/A
5:00 PM84 °FScattered clouds.9 mph14%30.01 "HgN/A
4:30 PM84 °FScattered clouds.9 mph13%30.01 "HgN/A
4:00 PM86 °FScattered clouds.9 mph12%30.01 "HgN/A
3:30 PM84 °FScattered clouds.18 mph14%30.01 "HgN/A
3:00 PM86 °FScattered clouds.12 mph13%30.04 "HgN/A
2:30 PM86 °FScattered clouds.12 mph13%30.04 "HgN/A
2:00 PM86 °FScattered clouds.14 mph12%30.04 "HgN/A
1:30 PM84 °FScattered clouds.9 mph13%30.07 "HgN/A
1:00 PM84 °FScattered clouds.12 mph14%30.07 "HgN/A
12:00 PM82 °FPassing clouds.12 mph17%30.09 "Hg5 mi
10:00 AM75 °FClear.9 mph27%30.12 "Hg4 mi
9:30 AM72 °FPassing clouds.12 mph29%30.12 "Hg4 mi
8:30 AM63 °FHaze.7 mph39%30.12 "Hg2 mi
8:00 AM59 °FScattered clouds.5 mph42%30.12 "Hg2 mi
7:30 AM55 °FHaze.5 mph47%30.12 "Hg3 mi
Weather by CustomWeather, © 2016

See weather overviewHow to use our weather pages